Location: G�migny
(47.9646°N, 1.6950°E)
Time: 11:19:25
(UTC+00:00)

YAOGAN 6 - Pass Details

Date: 25 January 2020
Orbit: 465 x 505 km, 97.0° (Epoch: 25 February)

Event Time Altitude Azimuth Distance (km) Brightness Sun altitude
Rises 17:52:25 0° 169° (S) 2,588 6.3 -11.8°
Reaches altitude 10° 17:54:30 10° 171° (S) 1,705 5.4 -12.2°
Maximum altitude 17:58:10 78° 257° (WSW) 515 2.7 -12.8°
Drops below altitude 10° 18:01:51 10° 345° (NNW) 1,701 5.3 -13.4°
Sets 18:03:55 0° 347° (NNW) 2,582 6.3 -13.7°
